SCP
0 0 -0 -0 -0 -0 -0 0 0 0 0 0 0 0 0 0 0 0 0 0 0 0 0 0 0 0 0 0 0 0 0 0 0 0 0 0 0 0 0 0 0 0 0 0
0 -0 -0 -0 -0 0 0 0 0 0 0 0 0 0 0 0 0 0 0 0 0 0 0 0 0 0 0 0 0 0 0 0 0 0 0 0 0 0 0 0 0 0 0 0
0 0 0 0 -0 0 -0 0 0 0 0 0 0 0 0 0 0 0 0 0 0 0 0 0 0 0 0 0 0 0 0 0 0 0 0 0 0 0 0 0 0 0 0 0
0 0 0 0 0 0 0 0 0 0 0 0 0 0 0 0 0 0 0 0 0 0 0 0 0 0 0 0 0 0 0 0 0 0 0 0 0 0 0 0 0 0 0 0
0 0 0 0 0 0 0 0 0 0 0 0 0 0 0 0 0 0 0 0 0 0 0 0 0 0 0 0 0 0 0 0 0 0 0 0 0 0 0 0 0 0 0 0
0 0 0 0 0 0 0 0 0 0 0 0 0 0 0 0 0 0 0 0 0 0 0 0 0 0 0 0 0 0 0 0 0 0 0 0 0 0 0 0 0 0 0 0
0 0 0 0 0 0 0 0 0 0 0 0 0 0 0 0 0 0 0 0 0 0 0 0 0 0 0 0 0 0 0 0 0 0 0 0 0 0 0 0 0 0 0 0
0 0 0 0 0 0 0 0 0 0 0 0 0 0 0 0 0 0 0 0 0 0 0 0 0 0 0 0 0 0 0 0 0 0 0 0 0 0 0 0 0 0 0 0
0 0 0 0 0 0 0 0 0 0 0 0 0 0 0 0 0 0 0 0 0 0 0 0 0 0 0 0 0 0 0 0 0 0 0 0 0 0 0 0 0 0 0 0
0 0 0 0 0 0 0 0 0 0 0 0 0 0 0 0 0 0 0 0 0 0 0 0 0 0 0 0 0 0 0 0 0 0 0 0 0 0 0 0 0 0 0 0
0 0 0 0 0 0 0 0 0 0 0 0 0 0 0 0 0 0 0 0 0 0 0 0 0 0 0 0 0 0 0 0 0 0 0 0 0 0 0 0 0 0 0 0
0 0 0 0 0 0 0 0 0 0 0 0 0 0 0 0 0 0 0 0 0 0 0 0 0 0 0 0 0 0 0 0 0 0 0 0 0 0 0 0 0 0 0 0
0 0 0 0 0 0 0 0 0 0 0 0 0 0 0 0 0 0 0 0 0 0 0 0 0 0 0 0 0 0 0 0 0 0 0 0 0 0 0 0 0 0 0 0
0 0 0 0 0 0 0 0 0 0 0 0 0 0 0 0 0 0 0 0 0 0 0 0 0 0 0 0 0 0 0 0 0 0 0 0 0 0 0 0 0 0 0 0
0 0 0 0 0 0 0 0 0 0 0 0 0 0 0 0 0 0 0 0 0 0 0 0 0 0 0 0 0 0 0 0 0 0 0 0 0 0 0 0 0 0 0 -0
0 0 0 0 0 0 0 0 0 0 0 0 0 0 0 0 0 0 0 0 0 0 0 0 0 0 0 0 0 0 0 0 0 0 0 0 0 0 0 0 0 -0 -0 -0
0 0 0 0 0 0 0 0 0 0 0 0 0 0 0 0 0 0 0 0 0 0 0 0 0 0 0 0 0 0 0 0 0 0 0 0 0 0 0 0 0 -0 -0 0
0 0 0 0 0 0 0 0 0 0 0 0 0 0 0 0 0 0 0 0 0 0 0 0 0 0 0 0 0 0 0 0 0 0 0 0 0 0 0 0 -0 -0 -0 0
0 0 0 0 0 0 0 0 0 0 0 0 0 0 0 0 0 0 0 0 0 0 0 0 0 0 0 0 0 0 0 0 0 0 0 0 0 0 -0 -0 -0 -0 0 0
0 0 0 0 0 0 0 0 0 0 0 0 0 0 0 0 0 0 0 0 0 0 0 0 0 0 0 0 0 0 0 0 -0 0 0 0 0 -0 -0 -0 -0 0 0 0
0 0 0 0 0 0 0 0 0 0 0 0 0 0 0 0 0 0 0 0 0 0 0 0 0 0 0 0 0 0 0 0 0 0 0 0 0 -0 -0 -0 0 0 0 0
0 0 0 0 0 0 0 0 0 0 0 0 0 0 0 0 0 0 0 0 0 0 0 0 0 0 0 0 0 0 0 -0 0 0 0 0 0 -0 -0 -0 0 0 0 0
-0 0 0 0 0 0 0 0 0 0 0 0 0 0 0 0 0 0 0 0 0 0 0 0 0 0 0 0 0 0 0 0 0 0 0 0 -0 -0 -0 0 0 0 0 0
0 0 0 0 0 0 0 0 0 0 0 0 0 0 0 0 0 0 0 0 0 0 0 0 0 -0 0 0 0 0 -0 0 0 0 0 0 -0 -0 0 0 0 0 0 0
0 0 0 0 0 0 0 0 0 0 0 0 0 0 0 0 0 0 0 0 0 0 0 0 0 0 0 0 0 0 0 0 0 0 0 0 -0 -0 0 0 0 0 0 0
0 0 0 0 0 0 0 0 0 0 0 0 0 0 0 0 0 0 0 0 0 0 0 0 0 0 0 0 0 0 0 0 0 0 0 0 0 0 0 0 0 0 0 0
0 0 0 0 0 0 0 0 0 0 0 0 0 0 0 0 0 0 0 0 0 0 0 0 0 0 0 0 0 0 0 0 0 0 0 0 0 0 0 0 0 0 0 0
Wind_Speed_500mb
47 50 55 57 65 64 59 25 2 13 17 2 3 3 5 7 9 2 2 6 6 5 5 6 5 6 4 9 1 4 4 4 1 4 2 4 8 6 3 3 6 1 4 1
43 45 48 51 55 58 60 34 12 13 14 3 1 5 6 7 6 5 3 4 4 5 6 7 4 6 6 3 4 6 8 4 1 4 6 4 7 6 7 6 1 7 6 2
42 42 44 45 45 46 45 16 7 10 13 12 4 7 4 3 4 5 7 6 6 7 5 7 9 7 6 7 10 13 8 5 4 7 3 4 2 3 2 1 2 2 5 4
41 40 39 40 39 37 32 13 4 6 7 6 5 3 4 5 2 4 5 6 4 9 6 4 6 5 7 8 4 7 3 4 4 3 2 1 1 6 5 4 2 5 4 2
36 36 37 34 34 29 17 11 9 8 9 11 7 3 3 3 2 5 1 10 6 5 7 5 13 12 7 4 6 5 3 6 5 4 4 2 5 5 10 8 8 10 6 5
34 34 32 29 27 24 9 13 11 8 5 6 4 2 4 2 7 8 6 21 11 12 10 14 16 11 13 8 7 6 3 9 5 3 1 2 9 8 4 4 4 3 3 7
31 31 30 26 22 18 12 12 11 5 5 5 3 5 6 3 2 7 5 7 6 9 18 18 16 17 16 13 14 5 10 9 2 2 4 7 5 4 5 3 5 8 6 10
29 28 27 24 20 16 11 10 6 5 7 7 7 9 5 2 10 9 9 9 13 19 9 4 4 3 5 7 11 4 1 9 5 4 5 6 6 9 10 8 5 18 10 10
28 27 26 24 19 18 13 11 9 6 6 4 8 6 6 2 4 6 8 13 14 9 6 3 7 8 5 7 7 7 11 10 4 5 4 6 5 11 10 8 6 22 18 11
27 25 24 23 19 18 15 12 13 9 8 9 4 4 4 1 3 5 6 7 6 7 4 4 6 5 2 10 12 10 7 4 8 6 6 6 6 19 17 6 4 20 19 7
24 25 22 21 19 19 17 15 14 16 10 24 18 8 4 4 1 3 9 7 3 4 5 5 5 6 5 5 5 7 13 13 7 6 7 10 27 16 10 5 10 17 13 8
18 25 24 20 18 15 18 13 15 17 21 18 19 24 24 22 11 2 11 1 5 8 7 4 4 4 5 5 5 2 7 6 6 12 4 4 25 4 11 15 16 13 11 6
15 21 26 21 16 10 15 18 18 16 19 34 31 19 26 30 27 18 5 6 10 10 10 10 4 4 5 7 7 5 6 6 5 6 9 9 15 12 17 16 11 11 8 2
16 19 19 21 18 10 16 20 19 18 10 9 6 4 6 16 28 24 22 13 11 15 13 5 4 4 9 3 2 6 2 17 10 3 6 5 15 20 23 20 13 11 5 2
17 19 17 18 15 14 18 22 23 24 14 7 15 17 12 13 20 18 17 21 21 15 7 5 5 7 7 3 2 7 17 10 9 7 19 9 6 33 29 21 14 9 4 5
21 19 19 16 17 15 10 8 17 27 23 7 6 6 11 22 19 18 19 18 14 9 7 4 5 8 6 6 6 7 20 18 16 9 25 15 14 28 27 21 14 8 6 9
26 20 19 19 20 18 16 5 4 13 28 6 10 5 9 27 27 20 16 14 9 8 7 5 5 7 8 4 7 8 23 24 22 21 29 16 21 16 27 20 13 9 8 17
23 20 18 19 23 15 23 28 13 11 18 7 6 5 6 29 12 10 14 10 9 5 6 6 6 8 5 9 17 7 25 29 28 30 19 13 22 20 26 20 15 14 17 21
23 23 22 17 17 11 14 27 22 24 13 6 5 5 7 26 9 10 10 10 5 6 7 6 11 6 10 16 20 28 41 36 36 33 19 16 21 24 24 20 19 20 23 23
28 21 12 7 11 18 7 12 8 18 17 11 8 5 2 11 11 7 12 4 6 7 6 12 7 8 27 21 24 25 35 37 37 34 22 24 26 27 25 21 19 21 25 23
21 12 11 11 15 15 8 8 9 10 8 16 15 23 3 9 9 7 7 7 7 7 7 8 6 6 9 25 33 30 38 41 37 24 15 16 13 23 26 27 27 27 26 22
17 8 12 10 11 10 7 6 7 6 8 13 12 18 27 7 14 7 11 6 6 7 19 7 5 6 12 17 39 37 40 42 39 28 15 16 14 19 26 29 32 30 27 23
20 11 12 9 9 9 9 13 6 6 8 13 15 14 21 9 8 3 6 10 7 23 8 6 7 5 17 21 34 42 43 43 39 27 18 15 17 25 30 32 29 26 22 21
10 10 12 9 9 9 7 7 4 5 3 6 17 16 10 6 3 3 10 6 12 10 9 9 7 20 23 27 34 45 49 46 35 24 17 20 26 32 32 29 27 24 20 16
9 7 9 11 12 9 10 13 13 8 3 8 10 9 11 6 4 6 3 10 10 12 9 6 16 25 34 38 43 46 50 43 31 22 24 30 32 36 34 29 22 18 19 16
8 9 5 7 9 13 11 18 24 16 13 5 10 9 9 7 8 8 11 9 10 7 7 14 22 34 42 48 51 49 42 32 24 24 29 34 34 36 30 26 22 17 16 19
7 9 17 12 9 11 7 5 7 10 16 9 10 13 8 11 7 8 7 7 5 9 16 17 25 41 51 56 52 45 36 28 25 28 31 30 28 29 28 25 25 24 19 20
Wind_Direction_500mb
329 331 336 345 345 348 355 359 6 21 170 81 26 176 208 305 292 85 118 98 92 97 84 95 118 139 54 2 50 61 35 93 304 67 14 13 51 57 37 248 200 72 311 146
324 329 334 345 347 351 352 344 310 14 169 150 314 315 277 255 313 18 60 103 47 55 110 114 106 102 25 40 72 135 168 53 131 93 180 149 52 38 87 92 70 199 268 112
320 325 332 342 348 348 352 353 331 0 78 78 62 1 307 259 59 87 60 108 117 111 90 34 136 132 39 57 89 103 104 110 239 256 58 356 204 342 48 268 213 219 263 163
317 320 326 335 345 348 354 357 27 350 339 52 14 243 292 289 218 68 52 89 95 138 124 106 130 136 139 81 112 66 65 135 178 167 328 230 302 309 316 243 49 250 73 273
313 314 320 330 339 349 2 8 351 331 284 296 292 173 203 265 162 330 104 133 117 106 144 176 186 153 192 171 102 84 42 141 168 193 146 341 235 138 99 94 115 105 136 125
311 312 314 322 334 353 3 346 327 315 287 306 269 190 290 48 151 43 44 134 115 104 105 105 96 94 95 118 158 127 116 145 154 230 70 272 249 205 184 136 177 165 261 87
307 309 310 317 326 342 353 335 332 310 282 276 295 306 285 269 172 149 67 66 98 126 128 106 87 71 78 76 57 71 139 124 91 164 192 234 79 325 228 237 168 186 150 162
303 304 305 308 311 316 318 312 311 304 285 291 286 318 302 124 92 90 92 59 107 141 128 96 109 92 153 80 39 58 25 133 119 202 209 323 198 190 173 188 205 198 201 180
299 300 304 304 301 293 290 287 256 275 291 226 304 305 320 205 115 115 106 100 115 130 81 123 206 205 170 163 137 78 92 75 131 161 202 246 91 160 161 154 263 187 193 199
305 300 299 300 296 281 274 260 252 250 262 276 293 270 306 212 108 110 138 154 128 115 118 168 202 207 199 174 183 170 159 118 198 162 224 267 157 149 158 232 37 166 193 191
310 305 299 294 292 278 264 252 246 225 260 277 271 264 287 271 147 171 148 143 163 111 147 192 177 211 176 199 150 184 180 173 178 156 199 242 154 147 212 104 114 158 166 166
290 309 303 295 289 271 270 251 237 234 248 265 272 271 259 253 270 280 183 194 152 152 113 172 141 176 182 180 209 198 206 201 174 195 202 120 174 153 178 148 148 166 156 167
270 295 308 292 285 265 274 250 231 252 275 288 273 272 250 234 231 208 219 214 183 182 147 140 126 212 169 186 218 189 187 162 166 162 178 192 193 192 168 159 156 156 153 222
259 275 290 309 299 258 273 270 228 223 267 276 275 240 223 219 203 206 217 245 198 166 152 127 148 192 203 189 23 241 121 163 156 185 197 208 221 199 185 174 169 164 154 178
251 262 272 288 287 285 263 268 240 215 225 298 292 307 217 191 181 195 215 212 197 172 157 163 170 139 164 118 228 231 189 170 185 209 178 178 157 193 188 188 182 171 178 186
233 253 255 268 271 280 277 288 233 218 220 269 287 266 200 178 169 170 159 173 181 171 153 159 173 176 186 184 224 242 201 195 174 153 160 162 144 168 185 194 192 196 205 178
228 250 249 260 257 263 216 208 185 183 190 244 276 259 184 173 164 163 158 155 155 153 159 177 157 160 190 207 223 207 193 182 168 152 163 146 162 181 187 194 204 193 177 165
231 238 243 252 265 263 240 233 211 195 186 230 262 246 185 177 170 158 168 160 154 155 150 156 172 148 214 246 230 179 171 173 165 164 168 162 183 175 183 193 199 174 167 169
221 233 256 277 259 222 218 224 220 183 198 200 248 237 176 172 158 137 146 160 164 177 203 192 174 160 222 230 200 181 185 178 176 173 178 169 178 182 185 193 185 175 174 175
209 218 229 226 208 193 203 219 198 179 203 215 241 238 262 191 164 138 139 165 163 188 174 144 217 248 244 234 213 205 191 186 180 169 166 174 182 191 194 193 183 178 174 176
199 199 209 204 178 175 215 227 214 176 192 205 220 196 248 211 200 151 202 159 165 204 157 209 209 258 235 217 206 191 189 190 186 183 177 188 203 205 192 180 170 167 175 178
191 193 172 181 189 196 202 210 193 205 220 194 202 199 195 234 210 189 180 180 182 193 146 203 237 238 201 181 190 192 189 188 183 187 190 193 202 190 184 175 170 169 175 192
215 231 174 198 174 221 224 195 178 193 205 198 184 169 157 233 231 205 179 179 174 127 183 220 235 190 188 183 182 182 181 181 184 188 192 188 178 171 173 169 170 170 177 190
235 212 160 212 178 232 208 221 171 172 172 180 175 149 132 165 302 231 198 122 146 183 197 223 223 209 184 178 175 175 172 178 181 184 189 175 166 162 161 165 169 172 177 187
259 212 197 200 237 242 246 265 266 248 185 9 170 133 148 135 227 268 178 175 195 202 212 203 207 193 180 172 167 168 167 170 178 183 176 167 166 167 168 169 174 176 189 193
259 225 233 195 223 246 243 243 253 249 232 228 217 147 166 191 186 209 224 187 190 201 205 194 180 177 173 167 162 162 164 168 174 172 170 170 171 175 177 184 190 191 195 199
233 246 234 242 263 242 239 248 249 194 182 211 191 176 174 140 197 214 207 212 205 206 194 184 188 179 170 165 162 161 163 165 168 168 167 173 181 191 196 206 217 215 206 199
Wind_Speed_850mb
47 50 55 57 65 64 59 25 2 13 17 2 3 3 5 7 9 2 2 6 6 5 5 6 5 6 4 9 1 4 4 4 1 4 2 4 8 6 3 3 6 1 4 1
43 45 48 51 55 58 60 34 12 13 14 3 1 5 6 7 6 5 3 4 4 5 6 7 4 6 6 3 4 6 8 4 1 4 6 4 7 6 7 6 1 7 6 2
42 42 44 45 45 46 45 16 7 10 13 12 4 7 4 3 4 5 7 6 6 7 5 7 9 7 6 7 10 13 8 5 4 7 3 4 2 3 2 1 2 2 5 4
41 40 39 40 39 37 32 13 4 6 7 6 5 3 4 5 2 4 5 6 4 9 6 4 6 5 7 8 4 7 3 4 4 3 2 1 1 6 5 4 2 5 4 2
36 36 37 34 34 29 17 11 9 8 9 11 7 3 3 3 2 5 1 10 6 5 7 5 13 12 7 4 6 5 3 6 5 4 4 2 5 5 10 8 8 10 6 5
34 34 32 29 27 24 9 13 11 8 5 6 4 2 4 2 7 8 6 21 11 12 10 14 16 11 13 8 7 6 3 9 5 3 1 2 9 8 4 4 4 3 3 7
31 31 30 26 22 18 12 12 11 5 5 5 3 5 6 3 2 7 5 7 6 9 18 18 16 17 16 13 14 5 10 9 2 2 4 7 5 4 5 3 5 8 6 10
29 28 27 24 20 16 11 10 6 5 7 7 7 9 5 2 10 9 9 9 13 19 9 4 4 3 5 7 11 4 1 9 5 4 5 6 6 9 10 8 5 18 10 10
28 27 26 24 19 18 13 11 9 6 6 4 8 6 6 2 4 6 8 13 14 9 6 3 7 8 5 7 7 7 11 10 4 5 4 6 5 11 10 8 6 22 18 11
27 25 24 23 19 18 15 12 13 9 8 9 4 4 4 1 3 5 6 7 6 7 4 4 6 5 2 10 12 10 7 4 8 6 6 6 6 19 17 6 4 20 19 7
24 25 22 21 19 19 17 15 14 16 10 24 18 8 4 4 1 3 9 7 3 4 5 5 5 6 5 5 5 7 13 13 7 6 7 10 27 16 10 5 10 17 13 8
18 25 24 20 18 15 18 13 15 17 21 18 19 24 24 22 11 2 11 1 5 8 7 4 4 4 5 5 5 2 7 6 6 12 4 4 25 4 11 15 16 13 11 6
15 21 26 21 16 10 15 18 18 16 19 34 31 19 26 30 27 18 5 6 10 10 10 10 4 4 5 7 7 5 6 6 5 6 9 9 15 12 17 16 11 11 8 2
16 19 19 21 18 10 16 20 19 18 10 9 6 4 6 16 28 24 22 13 11 15 13 5 4 4 9 3 2 6 2 17 10 3 6 5 15 20 23 20 13 11 5 2
17 19 17 18 15 14 18 22 23 24 14 7 15 17 12 13 20 18 17 21 21 15 7 5 5 7 7 3 2 7 17 10 9 7 19 9 6 33 29 21 14 9 4 5
21 19 19 16 17 15 10 8 17 27 23 7 6 6 11 22 19 18 19 18 14 9 7 4 5 8 6 6 6 7 20 18 16 9 25 15 14 28 27 21 14 8 6 9
26 20 19 19 20 18 16 5 4 13 28 6 10 5 9 27 27 20 16 14 9 8 7 5 5 7 8 4 7 8 23 24 22 21 29 16 21 16 27 20 13 9 8 17
23 20 18 19 23 15 23 28 13 11 18 7 6 5 6 29 12 10 14 10 9 5 6 6 6 8 5 9 17 7 25 29 28 30 19 13 22 20 26 20 15 14 17 21
23 23 22 17 17 11 14 27 22 24 13 6 5 5 7 26 9 10 10 10 5 6 7 6 11 6 10 16 20 28 41 36 36 33 19 16 21 24 24 20 19 20 23 23
28 21 12 7 11 18 7 12 8 18 17 11 8 5 2 11 11 7 12 4 6 7 6 12 7 8 27 21 24 25 35 37 37 34 22 24 26 27 25 21 19 21 25 23
21 12 11 11 15 15 8 8 9 10 8 16 15 23 3 9 9 7 7 7 7 7 7 8 6 6 9 25 33 30 38 41 37 24 15 16 13 23 26 27 27 27 26 22
17 8 12 10 11 10 7 6 7 6 8 13 12 18 27 7 14 7 11 6 6 7 19 7 5 6 12 17 39 37 40 42 39 28 15 16 14 19 26 29 32 30 27 23
20 11 12 9 9 9 9 13 6 6 8 13 15 14 21 9 8 3 6 10 7 23 8 6 7 5 17 21 34 42 43 43 39 27 18 15 17 25 30 32 29 26 22 21
10 10 12 9 9 9 7 7 4 5 3 6 17 16 10 6 3 3 10 6 12 10 9 9 7 20 23 27 34 45 49 46 35 24 17 20 26 32 32 29 27 24 20 16
9 7 9 11 12 9 10 13 13 8 3 8 10 9 11 6 4 6 3 10 10 12 9 6 16 25 34 38 43 46 50 43 31 22 24 30 32 36 34 29 22 18 19 16
8 9 5 7 9 13 11 18 24 16 13 5 10 9 9 7 8 8 11 9 10 7 7 14 22 34 42 48 51 49 42 32 24 24 29 34 34 36 30 26 22 17 16 19
7 9 17 12 9 11 7 5 7 10 16 9 10 13 8 11 7 8 7 7 5 9 16 17 25 41 51 56 52 45 36 28 25 28 31 30 28 29 28 25 25 24 19 20
Wind_Direction_850mb
329 331 336 345 345 348 355 359 6 21 170 81 26 176 208 305 292 85 118 98 92 97 84 95 118 139 54 2 50 61 35 93 304 67 14 13 51 57 37 248 200 72 311 146
324 329 334 345 347 351 352 344 310 14 169 150 314 315 277 255 313 18 60 103 47 55 110 114 106 102 25 40 72 135 168 53 131 93 180 149 52 38 87 92 70 199 268 112
320 325 332 342 348 348 352 353 331 0 78 78 62 1 307 259 59 87 60 108 117 111 90 34 136 132 39 57 89 103 104 110 239 256 58 356 204 342 48 268 213 219 263 163
317 320 326 335 345 348 354 357 27 350 339 52 14 243 292 289 218 68 52 89 95 138 124 106 130 136 139 81 112 66 65 135 178 167 328 230 302 309 316 243 49 250 73 273
313 314 320 330 339 349 2 8 351 331 284 296 292 173 203 265 162 330 104 133 117 106 144 176 186 153 192 171 102 84 42 141 168 193 146 341 235 138 99 94 115 105 136 125
311 312 314 322 334 353 3 346 327 315 287 306 269 190 290 48 151 43 44 134 115 104 105 105 96 94 95 118 158 127 116 145 154 230 70 272 249 205 184 136 177 165 261 87
307 309 310 317 326 342 353 335 332 310 282 276 295 306 285 269 172 149 67 66 98 126 128 106 87 71 78 76 57 71 139 124 91 164 192 234 79 325 228 237 168 186 150 162
303 304 305 308 311 316 318 312 311 304 285 291 286 318 302 124 92 90 92 59 107 141 128 96 109 92 153 80 39 58 25 133 119 202 209 323 198 190 173 188 205 198 201 180
299 300 304 304 301 293 290 287 256 275 291 226 304 305 320 205 115 115 106 100 115 130 81 123 206 205 170 163 137 78 92 75 131 161 202 246 91 160 161 154 263 187 193 199
305 300 299 300 296 281 274 260 252 250 262 276 293 270 306 212 108 110 138 154 128 115 118 168 202 207 199 174 183 170 159 118 198 162 224 267 157 149 158 232 37 166 193 191
310 305 299 294 292 278 264 252 246 225 260 277 271 264 287 271 147 171 148 143 163 111 147 192 177 211 176 199 150 184 180 173 178 156 199 242 154 147 212 104 114 158 166 166
290 309 303 295 289 271 270 251 237 234 248 265 272 271 259 253 270 280 183 194 152 152 113 172 141 176 182 180 209 198 206 201 174 195 202 120 174 153 178 148 148 166 156 167
270 295 308 292 285 265 274 250 231 252 275 288 273 272 250 234 231 208 219 214 183 182 147 140 126 212 169 186 218 189 187 162 166 162 178 192 193 192 168 159 156 156 153 222
259 275 290 309 299 258 273 270 228 223 267 276 275 240 223 219 203 206 217 245 198 166 152 127 148 192 203 189 23 241 121 163 156 185 197 208 221 199 185 174 169 164 154 178
251 262 272 288 287 285 263 268 240 215 225 298 292 307 217 191 181 195 215 212 197 172 157 163 170 139 164 118 228 231 189 170 185 209 178 178 157 193 188 188 182 171 178 186
233 253 255 268 271 280 277 288 233 218 220 269 287 266 200 178 169 170 159 173 181 171 153 159 173 176 186 184 224 242 201 195 174 153 160 162 144 168 185 194 192 196 205 178
228 250 249 260 257 263 216 208 185 183 190 244 276 259 184 173 164 163 158 155 155 153 159 177 157 160 190 207 223 207 193 182 168 152 163 146 162 181 187 194 204 193 177 165
231 238 243 252 265 263 240 233 211 195 186 230 262 246 185 177 170 158 168 160 154 155 150 156 172 148 214 246 230 179 171 173 165 164 168 162 183 175 183 193 199 174 167 169
221 233 256 277 259 222 218 224 220 183 198 200 248 237 176 172 158 137 146 160 164 177 203 192 174 160 222 230 200 181 185 178 176 173 178 169 178 182 185 193 185 175 174 175
209 218 229 226 208 193 203 219 198 179 203 215 241 238 262 191 164 138 139 165 163 188 174 144 217 248 244 234 213 205 191 186 180 169 166 174 182 191 194 193 183 178 174 176
199 199 209 204 178 175 215 227 214 176 192 205 220 196 248 211 200 151 202 159 165 204 157 209 209 258 235 217 206 191 189 190 186 183 177 188 203 205 192 180 170 167 175 178
191 193 172 181 189 196 202 210 193 205 220 194 202 199 195 234 210 189 180 180 182 193 146 203 237 238 201 181 190 192 189 188 183 187 190 193 202 190 184 175 170 169 175 192
215 231 174 198 174 221 224 195 178 193 205 198 184 169 157 233 231 205 179 179 174 127 183 220 235 190 188 183 182 182 181 181 184 188 192 188 178 171 173 169 170 170 177 190
235 212 160 212 178 232 208 221 171 172 172 180 175 149 132 165 302 231 198 122 146 183 197 223 223 209 184 178 175 175 172 178 181 184 189 175 166 162 161 165 169 172 177 187
259 212 197 200 237 242 246 265 266 248 185 9 170 133 148 135 227 268 178 175 195 202 212 203 207 193 180 172 167 168 167 170 178 183 176 167 166 167 168 169 174 176 189 193
259 225 233 195 223 246 243 243 253 249 232 228 217 147 166 191 186 209 224 187 190 201 205 194 180 177 173 167 162 162 164 168 174 172 170 170 171 175 177 184 190 191 195 199
233 246 234 242 263 242 239 248 249 194 182 211 191 176 174 140 197 214 207 212 205 206 194 184 188 179 170 165 162 161 163 165 168 168 167 173 181 191 196 206 217 215 206 199